Линкольн

США     40°47′21″N   96°41′36″W
темп.,
°C
ветер,
м/с
пор.,
м/с
влажн.,
%
обл.,
%
осадки,
мм/ч
давл.,
гПа
погр.,
м
16 октября, сб
сб1601:00+7зсз49440 0.0 1022150
04:00+6з410470 0.0 1023166
07:00+5з48510 0.0 1025139
10:00+10з47400 0.0 1025355
13:00+17зсз57260 0.0 10231311
16:00+18зсз45240 0.0 10221485
19:00+14юз22350 0.0 102211
22:00+12юз45410 0.0 102364
17 октября, вс
вс1701:00+10зюз46460 0.0 102387
04:00+9зюз33480 0.0 102325
07:00+9юз32490 0.0 102319
10:00+15юз35360 0.0 1022217
13:00+21ююз45250 0.0 1020911
16:00+23ю45230 0.0 10171384
19:00+17ю44360 0.0 101642
22:00+14ю49450 0.0 1017125
18 октября, пн
пн1801:00+13ю411550 0.0 1016175
04:00+11ю411570 0.0 1015189
07:00+11ю513540 0.0 1015203
10:00+16ю714390 0.0 1014420
13:00+22ю811250 0.0 10121027
16:00+24ю91225100 0.0 10101394
19:00+19ю71432100 0.0 1010663
22:00+17ю816420 0.0 1011677
19 октября, вт
вт1901:00+15ю716480 0.0 1010582
04:00+14ююв715530 0.0 1010552
07:00+13ю615560 0.0 1009460
10:00+17ю814500 0.0 1009608
13:00+23ю811370 0.0 10071047
16:00+26ю912325 0.0 10051623
19:00+22ююв512455 0.0 1006254
22:00+17сз510465 0.0 1010312
20 октября, ср
ср2001:00+13зюз3456100 0.0 101264
04:00+11юз49610 0.0 1014170
07:00+11з613640 0.0 1015572
10:00+12з711560 0.0 1017704
13:00+16зсз89459 0.0 10161329
16:00+16зсз894410 0.0 10161471
19:00+12сз6115697 0.0 1018844
22:00+10сз71261100 0.0 1020914